Tracking 29892 objects as of 21-Nov-2024
HD Live streaming from Space Station
objects crossing your sky now

STARLINK-4597

Track STARLINK-4597 now!
10-day predictions
STARLINK-4597 is classified as:


NORAD ID: 53640
Int'l Code: 2022-104BE
Perigee: 546.3 km
Apogee: 547.4 km
Inclination: 53.2 °
Period: 95.4 minutes
Semi major axis: 6917 km
RCS: Unknown
Launch date: August 28, 2022
Source: United States (US)
Launch site: AIR FORCE EASTERN TEST RANGE (AFETR)
Your satellite tracking list
Your tracking list is empty




NASA's NSSDC Master Catalog

Two Line Element Set (TLE):
1 53640U 22104BE  24325.64136670  .00004003  00000-0  26941-3 0  9998
2 53640  53.2151 191.9521 0000778   4.4109 355.6890 15.08843282124661
Source of the keplerian elements: AFSPC